Regional Weather Roundup
Issued by NWS

Home | Current Version | Previous Version | Graphics & Text | Print | Product List | Glossary On
Versions: 1 2 3 4 5 6 7 8 9 10 11 12 13 14 15 16 17 18 19 20 21 22 23 24 25 26 27 28 29 30 31 32 33 34 35 36 37 38 39 40 41 42 43 44 45 46 47
000
ASUS45 KCYS 010610
RWRWY

WYOMING REGIONAL WEATHER ROUNDUP
NATIONAL WEATHER SERVICE CHEYENNE WY
1200 AM MDT WED OCT 01 2014

NOTE:  "FAIR" INDICATES FEW OR NO CLOUDS BELOW 12,000 FEET
WITH NO SIGNIFICANT WEATHER AND/OR OBSTRUCTIONS TO VISIBILITY.

WYZ001-010700-
YELLOWSTONE NATIONAL PARK

CITY           SKY/WX    TMP DP  RH WIND       PRES   REMARKS
LK YELLOWSTONE   N/A     32  31  96 CALM      29.97F
6HR MIN TEMP:  32; 6HR MAX TEMP:  40; 6HR PCP:  0.24;

W YELLOWSTONE  NOT AVBL

$$
WYZ002>013-054>058-071-098>099-010700-
NORTHERN WYOMING

CITY           SKY/WX    TMP DP  RH WIND       PRES   REMARKS
JACKSON        CLOUDY    39  36  87 SW5       29.95F
CODY           CLOUDY    45  43  93 N13       29.88R
GREYBULL       RAIN      51  45  79 NW9       29.82R
6HR MIN TEMP:  51; 6HR MAX TEMP:  58; 6HR PCP:  0.07;

WORLAND        CLOUDY    50  48  93 CALM      29.82R
6HR MIN TEMP:  48; 6HR MAX TEMP:  62; 6HR PCP:  0.11;

SHERIDAN       CLOUDY    50  44  80 NW3       29.80R
6HR MIN TEMP:  50; 6HR MAX TEMP:  58;

BUFFALO        CLOUDY    50  40  68 NW9       29.82R
6HR MIN TEMP:  49; 6HR MAX TEMP:  54;

GILLETTE       CLOUDY    47  43  86 W9        29.79R
6HR MIN TEMP:  46; 6HR MAX TEMP:  56; 6HR PCP: TRACE;

HULETT         CLOUDY    52  45  76 W7        29.77
NEWCASTLE      FAIR      50  43  76 NW6       29.78

$$
WYZ014>020-022>026-101>103-010700-
CENTRAL WYOMING

CITY           SKY/WX    TMP DP  RH WIND       PRES   REMARKS
BIG PINEY      PTCLDY    34  29  82 NW8       29.98R WCI  27
6HR MIN TEMP:  33; 6HR MAX TEMP:  49;

PINEDALE       PTCLDY    36  32  87 W9        29.98S WCI  29
DUBOIS         FAIR      36  30  80 NW10      29.91S WCI  28
LANDER         PTCLDY    50  37  61 CALM      29.83S
6HR MIN TEMP:  43; 6HR MAX TEMP:  61;

RIVERTON       CLOUDY    50  42  74 N10       29.84R
6HR MIN TEMP:  49; 6HR MAX TEMP:  60;

CASPER         CLOUDY    50  38  63 SW9       29.83R
6HR MIN TEMP:  47; 6HR MAX TEMP:  60;

DOUGLAS        MOCLDY    46  42  86 N6        29.83S
6HR MIN TEMP:  45; 6HR MAX TEMP:  57; 6HR PCP:  0.01;


$$
WYZ021-027>030-104>119-010700-
SOUTHERN WYOMING

CITY           SKY/WX    TMP DP  RH WIND       PRES   REMARKS
EVANSTON       PTCLDY    37  36  96 E3        30.00F
6HR MIN TEMP:  37; 6HR MAX TEMP:  41; 6HR PCP:  0.01;

KEMMERER       MOCLDY    34  34 100 W6        30.00S WCI  29
FORT BRIDGER     N/A     40  39  97 SW9       30.03S WCI  34
ROCK SPRINGS   CLOUDY    41  37  86 W20       29.97F
6HR MIN TEMP:  40; 6HR MAX TEMP:  50; 6HR PCP:  0.02;

DIXON          DRIZZLE   44  42  93 SE3       30.01S
RAWLINS        PTCLDY    42  37  82 W12       29.93F
6HR MIN TEMP:  42; 6HR MAX TEMP:  46;

SARATOGA       MOCLDY    43  36  75 SW7       29.97S
LARAMIE        PTCLDY    41  33  73 SW6       29.93S
6HR MIN TEMP:  39; 6HR MAX TEMP:  47;

CHEYENNE       CLOUDY    48  37  65 W9        29.89S
6HR MIN TEMP:  48; 6HR MAX TEMP:  56;

TORRINGTON     CLOUDY    53  44  71 NW6       29.78S
6HR MIN TEMP:  53; 6HR MAX TEMP:  62; 6HR PCP: TRACE;

PINE BLUFFS    MOCLDY    48  41  76 W5        29.86S

$$



USA.gov is the U.S. government's official web portal to all federal, state and local government web resources and services.